Tracking 29489 objects as of 9-Sep-2024
HD Live streaming from Space Station
objects crossing your sky now

FREGAT R/B

Track FREGAT R/B now!


NORAD ID: 37345
Int'l Code: 2011-001B
Perigee: 34,452.0 km
Apogee: 35,747.5 km
Inclination: 9.0 °
Period: 1,400.8 minutes
Semi major axis: 41470 km
RCS: 8.569 m2 (large)
Launch date: January 20, 2011
Source: Commonwealth of Independent States (former USSR) (CIS)
Launch site: TYURATAM MISSILE AND SPACE COMPLEX (TTMTR)

Note: This is a ROCKET BODY
Your satellite tracking list
Your tracking list is empty




NASA's NSSDC Master Catalog

Two Line Element Set (TLE):
1 37345U 11001B   24253.08252517 -.00000012  00000-0  00000-0 0  9995
2 37345   8.9964  47.8299 0156186  54.3582 290.2293  1.02799312 53754
Source of the keplerian elements: AFSPC